User: anonymous   Login
Location: NJAA Observatory
(40.6819°N, 74.8979°W)
Time: 12:43:38
(UTC-05:00)
Language:

Meteor 1-28 Rocket - Orbit

View from above orbital plane
View from above orbital plane
View from above satellite
View from above satellite

Ground track
Ground track

The orbit data is extracted from the following two-line orbital elements,

1 10114U 77057B   14355.86670374  .00005196  00000-0  28630-3 0  4260
2 10114 097.2451 207.3484 0013181 246.7774 113.2071 15.14347005 45954
Epoch (UTC): 21 December 2014 20:48:03
Eccentricity: 0.0013181
inclination: 97.2451°
perigee height: 514 km
apogee height: 532 km
right ascension of ascending node: 207.3484°
argument of perigee: 246.7774°
revolutions per day: 15.14347005
mean anomaly at epoch: 113.2071°
orbit number at epoch: 4595

The dashed part of the orbit path shows where the satellite is in the earth's shadow,  

DLR